Regional Weather Roundup
Issued by NWS

Home | Current Version | Previous Version | Text Only | Print | Product List | Glossary On
Versions: 1 2 3 4 5 6 7 8 9 10 11 12 13 14 15 16 17 18 19 20 21 22 23 24 25 26 27 28 29 30 31 32 33 34 35 36 37 38 39 40 41 42 43 44 45 46 47 48 49 50
000
ASUS44 KOUN 070010
RWROK

WEATHER ROUNDUP FOR OKLAHOMA
NATIONAL WEATHER SERVICE NORMAN OK
600 PM CST FRI MAR 06 2015

NOTE: "FAIR" INDICATES FEW OR NO CLOUDS BELOW 12,000 FEET WITH NO
      SIGNIFICANT WEATHER AND/OR OBSTRUCTIONS TO VISIBILITY.

OKZ001>007-009>012-014-015-017-070100-
NORTHWEST OKLAHOMA AND THE PANHANDLE

CITY           SKY/WX    TMP DP  RH WIND       PRES   REMARKS
GAGE           CLEAR     60  29  30 S13       30.25S
6HR MIN TEMP:  55; 6HR MAX TEMP:  64;

GUYMON         CLEAR     60  28  29 S6        30.23
ENID/WOODRING  CLEAR     55  32  41 S15G23    30.30R
$$

OKZ016-021>023-033>039-044-045-070100-
SOUTHWEST OKLAHOMA

CITY           SKY/WX    TMP DP  RH WIND       PRES   REMARKS
LAWTON/REGL    CLEAR     53  30  41 S12       30.37F
6HR MIN TEMP:  48; 6HR MAX TEMP:  56;

LAWTON/FT SILL CLEAR     53  31  43 S10       30.35F
FREDERICK      CLEAR     53  33  46 S14       30.34S
CLINTON        CLEAR     53  32  44 S15       30.33S
HOBART         CLEAR     52  30  43 S14       30.34F
ALTUS AFB      CLEAR     54  32  42 S12       30.34F
$$

OKZ018>020-024>031-070100-
CENTRAL OKLAHOMA

CITY           SKY/WX    TMP DP  RH WIND       PRES   REMARKS
OKLAHOMA CITY  CLEAR     53  26  35 S15       30.35S
6HR MIN TEMP:  50; 6HR MAX TEMP:  57;

OKC/WILEY POST CLEAR     53  27  36 S15       30.35S
OKC/TINKER AFB CLEAR     52  27  37 S13       30.34S
STILLWATER     CLEAR     55  25  31 S14       30.32F
GUTHRIE        CLEAR     54  26  34 SW12      30.33F
$$

OKZ008-013-054>072-070100-
NORTHEAST OKLAHOMA

CITY           SKY/WX    TMP DP  RH WIND       PRES   REMARKS
TULSA          CLEAR     54  26  34 S10       30.33F
6HR MIN TEMP:  50; 6HR MAX TEMP:  58;

TULSA/JONES    CLEAR     55  24  30 S9        30.35F
PONCA CITY     CLEAR     55  26  32 SW12      30.30S
BARTLESVILLE   CLEAR     55  24  30 SW9       30.32F
MUSKOGEE       CLEAR     49  27  42 S9        30.41S
$$

OKZ032-040>043-046>053-073>077-070100-
SOUTH CENTRAL/SOUTHEAST OKLAHOMA

CITY           SKY/WX    TMP DP  RH WIND       PRES   REMARKS
ARDMORE/DWNTWN CLEAR     50  28  43 S6        30.42R
MCALESTER      CLEAR     50  27  40 S10       30.41F
$$



USA.gov is the U.S. government's official web portal to all federal, state and local government web resources and services.